Location: French Creek State Gamelands
(40.1750°N, 75.7969°W)
Time: 13:01:16
(UTC-05:00)

ISS - All Passes

Search period start: 28 November 2014 00:00
Search period end: 08 December 2014 00:00
Orbit: 407 x 417 km, 51.6° (Epoch: 28 November)

Date Brightness Start Highest point End Pass type
(mag) Time Alt. Az. Time Alt. Az. Time Alt. Az.
28 Nov - 01:08:29 10° NW 01:10:05 13° N 01:11:42 10° NNE night (unlit)
28 Nov - 02:46:13 10° NNW 02:47:51 13° N 02:49:28 10° NE night (unlit)
28 Nov - 04:22:08 10° NW 04:25:13 36° NNE 04:28:18 10° E visible
28 Nov - 05:58:59 10° WNW 06:01:45 25° SW 06:04:31 10° SSE visible
28 Nov - 21:04:41 10° SSE 21:06:30 14° SE 21:08:20 10° E night (unlit)
28 Nov - 22:39:32 10° WSW 22:42:47 60° NW 22:46:03 10° NE night (unlit)
29 Nov - 00:17:54 10° NW 00:19:58 15° NNW 00:22:02 10° NNE night (unlit)
29 Nov - 01:56:26 10° NNW 01:57:41 12° N 01:58:56 10° NNE night (unlit)
29 Nov - 03:32:27 10° NNW 03:35:14 24° NNE 03:38:00 10° E visible
29 Nov - 05:08:50 10° WNW 05:12:01 47° SW 05:15:11 10° SSE visible
29 Nov - 21:49:38 10° SW 21:52:54 74° SE 21:56:11 10° NE night (unlit)
29 Nov - 23:27:21 10° WNW 23:29:51 20° NNW 23:32:21 10° NNE night (unlit)
30 Nov - 01:06:21 10° NNW 01:07:29 11° N 01:08:36 10° NNE night (unlit)
30 Nov - 02:42:47 10° NNW 02:45:09 18° NNE 02:47:31 10° ENE night (unlit)
30 Nov - 04:18:52 10° NW 04:22:10 90° SW 04:25:27 10° SE visible
30 Nov - 20:59:59 10° SSW 21:03:04 38° SE 21:06:09 10° ENE night (unlit)
30 Nov - 22:36:53 10° W 22:39:45 27° NNW 22:42:38 10° NE night (unlit)
01 Dec - 00:15:54 10° NNW 00:17:15 12° N 00:18:36 10° NNE night (unlit)
01 Dec - 01:53:04 10° NNW 01:54:59 14° NNE 01:56:54 10° NE night (unlit)
01 Dec - 03:29:00 10° NW 03:32:13 50° NNE 03:35:26 10° ESE night (unlit)
01 Dec - 05:06:21 10° W 05:08:35 17° SW 05:10:49 10° S visible
01 Dec - 20:10:43 10° S 20:13:15 21° SE 20:15:48 10° E night (unlit)
01 Dec - 21:46:33 10° WSW 21:49:42 42° NNW 21:52:51 10° NE night (unlit)
01 Dec - 23:25:14 10° NW 23:27:00 14° NNW 23:28:46 10° NNE night (unlit)
02 Dec - 01:03:16 10° NNW 01:04:45 12° N 01:06:13 10° NE night (unlit)
02 Dec - 02:39:11 10° NW 02:42:11 31° NNE 02:45:09 10° E night (unlit)
02 Dec - 04:15:50 10° WNW 04:18:47 31° SW 04:21:44 10° SSE visible
02 Dec - 19:22:22 10° SSE 19:23:28 11° SE 19:24:35 10° ESE night (unlit)
02 Dec - 20:56:23 10° WSW 20:59:40 75° NW 21:02:58 10° NE night (unlit)
02 Dec - 22:34:31 10° WNW 22:36:45 17° NNW 22:38:59 10° NNE night (unlit)
03 Dec - 00:13:17 10° NNW 00:14:27 11° N 00:15:36 10° NNE night (unlit)
03 Dec - 01:49:23 10° NNW 01:52:02 22° NNE 01:54:40 10° ENE night (unlit)
03 Dec - 03:25:38 10° WNW 03:28:53 60° SW 03:32:07 10° SE night (unlit)
03 Dec - 20:06:27 10° SW 20:09:41 58° SE 20:12:55 10° ENE night (unlit)
03 Dec - 21:43:52 10° WNW 21:46:31 22° NNW 21:49:11 10° NNE night (unlit)
03 Dec - 23:22:56 10° NNW 23:24:06 11° N 23:25:16 10° NNE night (unlit)
04 Dec - 00:59:35 10° NNW 01:01:48 17° NNE 01:04:00 10° ENE night (unlit)
04 Dec - 02:35:36 10° NW 02:38:53 73° NE 02:42:10 10° ESE night (unlit)
04 Dec - 04:13:52 10° WSW 04:15:05 12° SW 04:16:18 10° SSW night (unlit)
04 Dec - 19:16:47 10° SSW 19:19:43 30° SE 19:22:40 10° ENE visible
04 Dec - 20:53:19 10° W 20:56:19 32° NNW 20:59:19 10° NE night (unlit)
04 Dec - 22:32:15 10° NW 22:33:44 12° N 22:35:14 10° NNE night (unlit)
05 Dec - 00:09:44 10° NNW 00:11:28 14° NNE 00:13:13 10° NE night (unlit)
05 Dec - 01:45:38 10° NW 01:48:47 41° NNE 01:51:55 10° ESE night (unlit)
05 Dec - 03:22:39 10° W 03:25:14 21° SW 03:27:47 10° S night (unlit)
05 Dec - 18:27:36 10° S 18:29:48 17° SE 18:32:00 10° E visible
05 Dec - 20:02:55 10° WSW 20:06:09 51° NNW 20:09:22 10° NE visible
05 Dec - 21:41:25 10° NW 21:43:22 15° NNW 21:45:18 10° NNE night (unlit)
05 Dec - 23:19:45 10° NNW 23:21:05 12° N 23:22:25 10° NNE night (unlit)
06 Dec - 00:55:42 10° NW 00:58:34 27° NNE 01:01:26 10° E night (unlit)
06 Dec - 02:32:10 10° WNW 02:35:16 39° SW 02:38:21 10° SSE night (unlit)
06 Dec - 19:12:43 10° SW 19:16:00 87° SE 19:19:19 10° NE visible
06 Dec - 20:50:36 10° WNW 20:53:00 18° NNW 20:55:24 10° NNE night (unlit)
06 Dec - 22:29:31 10° NNW 22:30:39 11° N 22:31:46 10° NNE night (unlit)
07 Dec - 00:05:47 10° NNW 00:08:16 19° NNE 00:10:45 10° ENE night (unlit)
07 Dec - 01:41:55 10° NW 01:45:13 77° SW 01:48:29 10° SE night (unlit)
07 Dec - 18:22:45 10° SSW 18:25:54 45° SE 18:29:05 10° ENE visible
07 Dec - 19:59:51 10° W 20:02:39 25° NNW 20:05:27 10° NNE visible
07 Dec - 21:38:54 10° NNW 21:40:10 12° N 21:41:26 10° NNE night (unlit)
07 Dec - 23:15:50 10° NNW 23:17:53 15° NNE 23:19:55 10° NE night (unlit)
